Content
SEND FEEDBACK

Daily
Averages
Monthly
Summary
United States of America

ODESSA, TEXAS


Home > North America > United States > Texas
Elevation: 2863 feet     Latitude: 31 57N     Longitude: 102 11W

WEATHER
 
SELECT A DAY
Number of Records: 188,573;   Date Range: 1/1/95 - 10/18/14
 
SHARE

PRINT THIS DATA

[ ← Previous Day ]
WEATHER ALMANAC - JANUARY 23, 2013
[ Next Day → ]
[ °C ]   °F
Weather ElementAverageHighLow
Temperature52.8 °F73 °F (3:53 pm)42.8 °F (1:56 am)
Dewpoint39.9 °F48.2 °F (10:04 am)21.9 °F (3:53 pm)
Humidity73.2 %100 % (1:53 am)15 % (3:53 pm)
Barometer30.17 in30.28 in (10:09 am)30.09 in (4:53 pm)
Wind Speed6.3 mph12.7 mph (4:53 pm)
Weather ElementAverage
Visibility5 mi
Wind DirectionSSW (202.8 °)

Weather ElementTotal
Precipitation---
Heating Degree Days7.1 (Base 65)
Growing Degree Days7.9 (Base 50)
Averaged from 32 records on January 23, 2013
WEATHER CONDITIONS BREAKOUT
WIND DIRECTION BREAKOUT
WEATHER BY HOUR - JANUARY 23, 2013
[ °C ]   °F
Local TimeTemperatureDewpointHumidityBarometerVisibilityWind DirectionWind SpeedGust SpeedPrecipitationEventsConditions
1:53 AM43.0 °F43.0 °F100 %30.13 in4.0 miSouth (170°)3.5 mphClear
1:56 AM42.8 °F42.8 °F100 %30.18 in1.8 miSouth (170°)3.5 mphClear
2:07 AM42.8 °F42.8 °F100 %30.18 in0.5 miSouth (180°)4.6 mphFogFog
2:21 AM44.6 °F44.6 °F100 %30.19 in2.0 miSSW (200°)3.5 mphClear
2:38 AM46.4 °F46.4 °F100 %30.19 in1.5 miSSW (200°)6.9 mphPartly Cloudy
2:41 AM46.4 °F46.4 °F100 %30.19 in0.8 miSSW (200°)6.9 mphMist
2:53 AM45.0 °F45.0 °F100 %30.13 in0.2 miSSW (200°)5.8 mphFogFog
3:53 AM45.0 °F45.0 °F100 %30.13 in0.2 miSSW (200°)5.8 mphFogFog
4:53 AM46.9 °F46.9 °F100 %30.13 in0.2 miSSW (210°)4.6 mphFogFog
5:53 AM46.0 °F46.0 °F100 %30.14 in0.2 miSouth (190°)6.9 mphFogFog
6:53 AM45.0 °F45.0 °F100 %30.17 in0.2 miSouth (180°)8.1 mphFogFog
7:53 AM43.0 °F43.0 °F100 %30.20 in0.1 miSouth (190°)4.6 mphFogFog
8:18 AM42.8 °F42.8 °F100 %30.26 in0.1 miSSW (200°)3.5 mphFogFog
8:53 AM44.1 °F44.1 °F100 %30.21 in0.1 miSW (230°)3.5 mphFogFog
9:42 AM46.4 °F46.4 °F100 %30.26 in0.1 miSW (220°)5.8 mphFogFog
9:53 AM46.9 °F46.9 °F100 %30.22 in0.5 miSW (230°)6.9 mphFogFog
10:04 AM48.2 °F48.2 °F100 %30.27 in1.2 miWSW (240°)5.8 mphMostly Cloudy
10:09 AM48.2 °F48.2 °F100 %30.28 in5.0 miSW (230°)5.8 mphClear
10:53 AM55.9 °F48.0 °F75 %30.23 in10.0 miSW (230°)6.9 mphClear
11:53 AM64.9 °F36.0 °F34 %30.21 in10.0 miWSW (240°)10.4 mphClear
12:53 PM68.0 °F28.0 °F22 %30.19 in10.0 miWSW (240°)9.2 mphClear
1:53 PM70.0 °F34.0 °F27 %30.14 in10.0 miSW (220°)8.1 mphClear
2:53 PM72.0 °F28.0 °F20 %30.12 in10.0 miSSW (210°)6.9 mphClear
3:53 PM73.0 °F21.9 °F15 %30.10 in10.0 miSW (220°)10.4 mphClear
4:53 PM72.0 °F24.1 °F17 %30.09 in10.0 miWSW (240°)12.7 mphClear
5:53 PM69.1 °F26.1 °F20 %30.09 in10.0 miSW (230°)6.9 mphClear
6:53 PM62.1 °F28.0 °F28 %30.12 in10.0 miSSW (210°)4.6 mphClear
7:53 PM55.0 °F30.0 °F38 %30.14 in10.0 miCalmClear
8:53 PM53.1 °F32.0 °F45 %30.15 in10.0 miSouth (190°)6.9 mphClear
9:53 PM54.0 °F37.9 °F55 %30.15 in10.0 miSSW (210°)6.9 mphClear
10:53 PM54.0 °F44.1 °F69 %30.14 in10.0 miSSW (210°)9.2 mphClear
11:53 PM52.0 °F45.0 °F77 %30.13 in10.0 miSSW (200°)6.9 mphClear
Hourly data recorded from KMAF, located miles away from Odessa, Texas







STORIES FROM OUR PARTNERS